FW2430 Weather Reports


Display with metric or nautical units.
time (UTC)temp
F
wind
direction
speed
MPH
gust
MPH
rain 1hr
in
rain 24hr
in
rain mn
in
humidity
%
barometer
mb
20190917041612 63 340 0.0 0.0 0.00 0.01 0.00 95 1018.9
20190917034659 62 52 0.0 0.0 0.00 0.01 0.01 94 1018.9
20190917033039 62 52 0.0 1.0 0.00 0.01 0.01 94 1018.8
20190917030155 62 52 0.0 2.0 0.00 0.01 0.01 94 1018.6
20190917024511 62 56 0.0 2.0 0.00 0.01 0.01 94 1018.5
20190917023010 62 88 0.0 0.0 0.00 0.01 0.01 94 1018.5
20190917021637 62 88 0.0 0.0 0.00 0.01 0.01 94 1018.3
20190917020029 62 88 0.0 0.0 0.00 0.01 0.01 94 1018.1
20190917013134 63 88 0.0 0.0 0.00 0.02 0.01 93 1018.1
20190917010141 63 88 0.0 0.0 0.00 0.02 0.01 92 1017.9
20190917004524 64 88 0.0 2.0 0.00 0.02 0.01 92 1017.7
20190917001612 65 88 0.0 0.0 0.00 0.02 0.01 91 1017.3
20190917000003 66 88 0.0 0.0 0.00 0.02 0.01 89 1017.2
20190916234653 67 88 0.0 0.0 0.00 0.02 0.01 88 1017.2
20190916233109 68 88 0.0 2.0 0.00 0.02 0.01 87 1017.0
20190916224551 71 138 2.0 7.0 0.00 0.02 0.01 81 1017.0
20190916223010 72 19 2.0 5.0 0.00 0.02 0.01 80 1017.0
20190916221810 72 313 2.0 5.0 0.00 0.02 0.01 79 1017.0
20190916220030 73 112 2.0 5.0 0.00 0.02 0.01 78 1017.0
20190916213232 73 321 2.0 8.0 0.00 0.02 0.01 78 1016.8
20190916211507 74 307 2.0 5.0 0.00 0.02 0.01 76 1016.8
20190916210231 75 215 3.0 9.0 0.00 0.02 0.01 74 1016.7
20190916204608 75 317 3.0 9.0 0.00 0.02 0.01 73 1016.6
20190916201615 76 355 4.0 10.0 0.00 0.02 0.01 75 1016.8
20190916200017 76 290 2.0 9.0 0.00 0.02 0.01 75 1016.7
20190916194656 76 92 2.0 7.0 0.00 0.02 0.01 75 1016.6
20190916193040 76 105 3.0 9.0 0.00 0.02 0.01 75 1016.7
20190916190106 77 107 1.0 8.0 0.00 0.02 0.01 75 1016.8
20190916183212 77 57 1.0 5.0 0.00 0.02 0.01 75 1016.8
20190916181544 77 51 2.0 6.0 0.00 0.02 0.01 75 1016.7
20190916174700 76 315 1.0 7.0 0.00 0.02 0.01 77 1016.8
20190916173021 76 336 1.0 7.0 0.00 0.02 0.01 79 1016.9
20190916170121 76 42 3.0 8.0 0.00 0.02 0.01 78 1017.0
20190916164621 75 318 2.0 7.0 0.00 0.02 0.01 80 1017.0
20190916161701 74 303 2.0 7.0 0.00 0.02 0.01 78 1017.1
20190916160013 74 318 2.0 7.0 0.00 0.02 0.01 78 1017.2
20190916153105 74 288 1.0 4.0 0.00 0.02 0.01 78 1017.2
20190916151503 73 309 2.0 4.0 0.00 0.02 0.01 79 1017.2
20190916150243 72 318 3.0 5.0 0.00 0.02 0.01 83 1017.4
20190916144516 72 274 2.0 5.0 0.00 0.02 0.01 83 1017.4
20190916141622 70 259 0.0 5.0 0.00 0.02 0.01 88 1017.5
20190916134719 69 91 0.0 2.0 0.00 0.02 0.01 92 1017.4
20190916133012 68 91 1.0 3.0 0.00 0.02 0.01 92 1017.4
20190916130119 67 136 0.0 1.0 0.00 0.02 0.01 93 1017.4
20190916123105 66 136 0.0 0.0 0.00 0.02 0.01 93 1017.4
20190916121511 66 136 0.0 0.0 0.00 0.02 0.01 94 1017.2
20190916114539 65 136 1.0 2.0 0.00 0.02 0.01 94 1017.1
20190916111635 65 41 1.0 2.0 0.00 0.02 0.01 94 1016.9
20190916110007 65 275 0.0 3.0 0.00 0.02 0.01 94 1016.8
20190916103110 65 253 0.0 0.0 0.00 0.02 0.01 94 1016.7
20190916101537 65 253 0.0 3.0 0.00 0.02 0.01 94 1016.7
20190916094552 65 253 0.0 0.0 0.00 0.02 0.01 94 1016.7
20190916093039 65 253 0.0 0.0 0.00 0.02 0.01 93 1016.5
20190916090053 65 253 0.0 0.0 0.01 0.02 0.01 93 1016.6
20190916084532 65 253 0.0 0.0 0.01 0.02 0.01 93 1016.5
20190916083223 65 253 0.0 0.0 0.01 0.02 0.01 92 1016.5
20190916081539 65 253 0.0 0.0 0.01 0.02 0.01 92 1016.5
20190916074614 66 253 0.0 0.0 0.00 0.01 0.00 91 1016.5
20190916071638 67 253 0.0 0.0 0.00 0.01 0.00 89 1016.8
20190916070033 68 253 0.0 3.0 0.00 0.01 0.00 87 1016.9
20190916063138 68 268 2.0 10.0 0.00 0.01 0.00 85 1017.3
20190916060336 67 275 0.0 4.0 0.00 0.01 0.00 89 1017.1
20190916054547 67 304 1.0 4.0 0.00 0.01 0.00 90 1017.2
20190916051538 66 339 0.0 1.0 0.00 0.01 0.00 94 1017.4
20190916050012 66 332 0.0 0.0 0.00 0.01 0.00 94 1017.4
20190916043109 66 332 0.0 0.0 0.00 0.01 0.00 93 1017.5